Orbital Elements at Epoch 2459188.5 (2020-Dec-05.0) TDB
Reference: JPL 2 (heliocentric ecliptic J2000)
Element | Value | Uncertainty (1-sigma) | Units |
e | 1.000065462360191 | 2.4005e-05 | |
a | -9393.433680048678 | 3444.6 | au |
q | .6149163389936573 | 9.9534e-06 | au |
i | 132.6858531465356 | 0.00012134 | deg |
node | 255.8710670332267 | 0.0011721 | deg |
peri | 225.089790258256 | 0.0013877 | deg |
M | -.0004268532659132481 | 0.00023477 | deg |
tp | 2459582.785762318993 (2022-Jan-03.28576232) | 0.017007 | TDB |
period | n/a n/a | n/a n/a | d yr |
n | 1.082598730937453E-6 | 5.9548e-07 | deg/d |
Q | n/a | n/a | au |
|
| | Orbit Determination Parameters
Additional Information
|